SCP
0 0 0 0 0 0 0 0 0 0 0 0 0 0 0 0 0 0 -0 0 0 0 0 0 0 0 0 0 0 0 0 0 0 0 0 0 -0 -0 -0 -0 -0 0 0 0 0
0 0 0 0 0 0 0 0 0 0 0 -0 -0 0 0 0 0 0 0 0 0 0 0 -0 -0 0 0 0 0 0 0 0 0 0 -0 -0 -0 -0 -0 -0 -0 -0 0 0 0
0 0 0 0 0 0 0 0 0 0 0 0 0 0 0 0 0 0 0 0 0 0 0 0 0 0 -0 0 0 0 0 0 -0 -0 -0 -0 -0 0 0 -0 0 0 0 0 0
0 0 0 0 0 -0 0 -0 0 -0 -0 0 -0 -0 0 0 0 0 -0 0 0 0 0 -0 -0 0 0 0 0 0 -0 0 -0 0 -0 0 0 -0 -0 0 0 0 0 0 0
0 0 0 0 -0 -0 0 -0 0 0 0 0 0 0 0 0 0 0 0 0 0 0 0 0 -0 0 -0 0 0 0 0 -0 -0 -0 -0 -0 -0 -0 -0 0 0 0 0 0 0
0 0 0 -0 -0 -0 0 0 0 -0 -0 -0 0 0 0 -0 0 0 0 0 0 0 0 0 0 0 0 0 0 0 -0 -0 -0 -0 -0 -0 -0 0 0 0 0 0 0 0 0
0 0 0 0 0 0 0 0 0 -0 -0 -0 0 0 -0 0 0 0 0 0 0 0 0 0 0 -0 0 0 0 -0 -0 -0 -0 0 -0 -0 -0 0 0 0 0 0 0 0 0
0 0 0 0 0 0 0 0 0 -0 -0 0 0 0 0 0 0 0 0 0 0 0 0 0 0 0 0 0 -0 0 0 0 0 0 0 0 0 0 0 0 0 0 0 0 0
0 0 0 0 0 -0 -0 0 -0 -0 0 0 0 0 0 0 0 0 0 0 0 -0 -0 -0 -0 -0 -0 0 0 0 0 0 0 -0 0 0 0 0 0 0 0 0 0 0 0
0 0 0 0 0 0 0 0 -0 0 0 0 0 0 0 0 0 0 -0 0 0 -0 -0 -0 -0 -0 -0 0 0 0 0 0 0 0 -0 0 0 0 0 0 0 0 0 0 0
0 0 0 0 0 0 0 0 -0 -0 -0 0 0 -0 0 0 0 -0 -0 0 0 0 0 -0 -0 0 0 0 0 0 0 0 0 0 0 0 0 0 0 0 0 0 0 0 0
0 0 0 0 0 0 0 0 0 0 0 0 -0 0 0 0 -0 -0 -0 0 -0 -0 -0 -0 0 0 0 0 0 0 0 0 0 0 0 0 0 0 0 0 0 0 0 0 0
0 0 0 0 -0 0 -0 0 -0 -0 0 0 0 0 0 0 0 -0 -0 0 -0 -0 -0 0 0 0 0 0 0 0 0 0 0 0 0 0 0 0 0 0 0 0 0 0 0
0 0 0 0 0 0 -0 0 0 0 -0 -0 -0 0 0 -0 0 0 0 0 0 0 0 0 0 0 0 0 0 0 0 0 0 0 0 0 0 0 0 0 0 0 0 0 0
0 0 0 0 -0 -0 -0 0 0 0 -0 -0 0 0 0 -0 -0 -0 0 0 0 0 0 0 0 0 0 0 0 0 0 0 0 0 0 0 0 0 0 0 0 0 0 0 0
0 0 0 0 0 0 0 0 0 -0 0 -0 0 0 0 0 0 0 0 0 0 0 0 0 0 0 0 0 0 0 0 0 0 0 0 0 0 0 0 0 0 0 0 0 0
0 0 0 0 -0 0 0 -0 -0 -0 -0 -0 0 0 0 0 0 0 0 0 0 0 0 0 0 0 0 0 0 0 0 0 0 0 0 0 0 0 0 0 0 0 0 0 0
0 0 0 0 0 0 0 -0 -0 -0 -0 0 0 0 0 0 0 0 0 0 0 0 0 0 0 0 0 0 0 0 -0 0 0 0 0 0 0 0 0 0 0 0 0 0 0
0 0 0 0 0 0 0 -0 -0 -0 0 0 0 0 0 0 0 0 0 0 0 0 0 0 0 0 0 0 0 0 0 0 0 0 0 0 0 0 0 0 0 0 0 0 0
0 0 0 0 0 -0 0 0 0 0 0 0 0 0 0 0 0 0 0 0 0 0 0 0 0 0 0 0 0 0 0 0 0 0 0 0 0 0 0 0 0 0 0 0 0
0 0 0 0 0 -0 -0 0 0 0 0 0 0 0 0 0 0 0 0 0 0 0 0 0 0 0 0 0 0 0 0 0 0 0 0 0 0 0 0 0 0 0 0 0 0
0 0 0 0 0 0 -0 -0 0 0 0 0 0 0 0 0 0 0 0 0 0 0 0 0 0 0 0 0 0 0 0 0 0 0 0 0 0 0 0 0 0 0 0 0 0
0 0 0 0 0 0 0 -0 0 0 0 0 0 0 0 0 0 0 0 0 0 0 0 0 0 0 0 0 0 0 0 0 0 0 0 0 0 0 0 0 0 0 0 0 0
0 0 0 0 0 -0 -0 -0 0 0 0 0 0 0 0 0 0 0 0 0 0 0 0 0 0 0 0 0 0 0 0 0 0 0 0 0 0 0 0 0 0 0 0 0 0
0 0 0 0 0 0 0 -0 0 0 0 0 0 0 0 0 0 0 0 0 0 0 0 0 0 0 0 0 0 0 0 0 0 0 0 0 0 0 0 0 0 0 0 0 0
0 0 0 0 0 0 0 0 0 0 0 0 0 0 0 0 0 0 0 0 0 0 0 0 0 0 0 0 0 0 0 0 0 0 0 0 0 0 0 0 0 0 0 0 0
0 0 0 0 0 0 0 0 0 0 0 0 0 0 0 0 0 0 0 0 0 0 0 0 0 0 0 0 0 0 0 0 0 0 0 0 0 0 0 0 0 0 0 0 0
Wind_Speed_500mb
10 12 13 14 17 19 20 21 23 28 33 37 34 38 39 36 26 23 28 21 22 22 21 20 20 21 27 26 21 11 9 6 5 6 10 17 24 50 42 66 74 42 42 35 50
8 8 11 12 18 22 22 23 29 35 37 38 36 34 30 30 38 45 33 23 18 18 17 19 25 26 19 15 15 16 7 9 11 16 25 43 31 20 26 44 48 51 50 52 55
8 6 9 11 20 23 24 27 35 35 31 26 17 9 9 8 24 34 26 22 17 18 19 20 19 23 21 21 15 12 8 12 35 58 48 56 76 9 12 33 33 38 45 56 60
7 6 6 14 24 27 28 31 35 31 26 21 20 20 20 6 9 22 20 19 19 19 19 25 21 12 12 11 14 14 38 21 13 28 35 29 38 70 61 36 36 41 48 58 68
7 5 12 23 29 30 30 34 32 29 23 22 26 27 32 42 24 20 16 15 17 17 20 18 24 14 9 10 25 16 23 47 61 74 72 72 63 48 51 42 44 50 58 64 64
9 12 19 29 33 33 34 36 30 25 26 27 31 31 29 42 21 17 17 17 18 20 22 24 17 23 22 11 12 23 58 39 36 50 29 51 45 18 31 38 50 55 59 61 63
15 22 31 36 36 38 37 35 25 28 44 43 34 33 51 22 18 16 15 18 22 23 25 22 22 9 18 24 44 45 32 26 22 13 32 21 43 24 24 41 56 56 57 56 57
24 32 35 37 41 42 36 39 47 36 27 26 28 31 21 23 20 17 18 19 20 20 27 32 15 23 14 37 12 4 7 8 15 12 19 13 11 19 26 44 49 53 54 54 55
31 34 37 45 50 48 41 32 27 25 20 15 11 15 11 15 24 22 15 14 19 24 26 17 29 21 11 8 6 12 5 5 6 50 5 19 20 13 26 37 45 50 52 51 51
35 38 43 48 47 39 33 28 23 17 14 10 14 10 22 20 21 15 18 13 12 8 11 15 20 9 9 10 4 1 4 7 9 12 40 41 29 14 19 35 38 47 52 52 52
35 39 44 44 40 41 40 31 22 25 48 29 27 23 18 17 25 17 10 15 16 20 10 23 20 9 6 7 3 6 7 10 7 13 14 27 26 15 14 27 34 41 51 54 56
36 39 38 38 41 37 16 7 12 25 27 36 31 20 31 19 17 32 22 15 18 9 6 12 12 7 6 9 8 9 9 7 10 15 14 19 17 8 9 16 24 30 40 49 57
35 36 36 38 35 25 10 32 28 13 12 16 24 26 17 20 24 34 20 14 18 16 15 13 5 7 6 12 7 3 9 7 2 16 18 22 6 7 2 5 17 27 37 46 55
32 35 36 30 18 14 27 21 6 3 10 21 17 18 24 5 14 33 20 9 13 7 6 10 11 6 10 10 4 3 6 4 25 12 5 12 4 8 7 3 9 25 35 41 55
30 32 31 22 6 23 27 10 5 2 9 14 11 9 32 17 5 35 25 30 10 5 6 1 9 11 11 5 2 6 3 6 8 9 6 12 5 4 4 5 14 19 27 38 50
25 29 29 24 4 24 20 1 6 11 4 6 10 14 10 25 12 19 16 19 10 10 14 3 3 6 4 5 4 12 6 8 6 5 3 7 9 10 7 5 8 19 29 39 49
20 22 25 22 13 22 16 3 10 11 5 7 7 7 9 14 13 18 11 17 9 5 12 12 6 11 11 8 10 16 9 5 6 4 5 4 3 4 11 10 9 17 35 40 39
19 19 21 17 17 22 15 9 12 4 2 2 3 6 10 10 8 13 6 9 12 9 7 7 5 11 20 5 3 8 5 6 8 7 7 4 8 2 11 8 15 27 33 35 40
20 19 18 17 23 23 7 10 9 7 5 10 5 9 7 5 6 9 9 3 4 10 5 4 3 3 7 8 2 2 9 2 2 3 1 4 1 1 3 11 21 32 36 31 42
21 21 21 21 23 17 9 8 4 1 0 1 6 1 3 9 5 8 5 3 7 8 2 5 4 2 6 3 17 9 6 3 7 10 11 5 7 3 1 10 18 32 37 32 45
23 11 15 21 19 4 8 6 5 2 2 5 5 7 5 4 5 3 1 2 2 8 10 3 3 4 2 8 2 7 4 10 6 2 4 9 5 9 5 6 15 30 40 36 50
12 8 19 24 7 9 6 8 9 5 6 5 9 7 5 4 5 4 5 2 4 1 3 1 6 6 3 1 3 4 5 6 6 4 1 1 8 15 5 17 20 34 40 45 46
12 11 13 12 7 4 4 7 7 4 6 4 5 5 4 6 3 3 5 3 5 4 6 5 2 7 4 2 3 4 3 7 9 4 10 7 4 10 11 22 44 44 43 47 36
9 5 6 4 9 16 11 6 7 7 6 10 8 5 6 5 8 9 6 3 2 7 7 3 4 8 9 3 2 7 6 7 8 6 6 11 8 6 16 19 35 36 35 30 46
7 5 9 4 1 15 10 7 9 6 5 5 7 4 8 6 3 4 4 2 3 4 4 4 5 2 8 4 4 6 10 12 14 6 11 5 7 14 10 22 37 35 35 35 47
11 12 12 11 25 15 4 5 9 6 3 1 10 3 3 9 6 12 11 7 5 4 4 4 1 3 7 3 5 9 13 11 8 6 13 7 12 10 30 40 36 43 25 32 42
12 16 9 3 5 7 6 10 10 21 7 7 18 9 6 4 10 16 9 15 12 10 5 4 5 5 9 6 9 10 11 14 6 7 8 8 8 7 22 31 31 27 27 45 47
Wind_Direction_500mb
52 74 80 89 102 110 105 99 105 114 116 111 102 95 89 80 78 76 58 55 68 65 61 62 58 71 74 63 52 71 64 65 50 65 82 31 86 63 69 69 64 69 65 46 44
43 71 90 107 114 109 110 107 114 118 117 115 105 98 89 83 71 60 51 60 73 55 61 66 68 75 67 43 34 60 72 53 13 93 90 66 78 92 72 56 52 56 57 50 46
38 75 109 112 118 120 119 116 118 117 116 118 109 83 64 73 57 29 46 64 62 56 55 54 60 65 60 54 31 46 63 90 81 112 101 89 63 89 90 51 45 41 37 41 44
44 85 98 130 133 127 124 123 123 117 110 96 78 85 69 85 74 23 46 56 55 55 54 53 71 71 66 62 39 89 39 99 144 101 95 84 90 70 65 70 60 55 54 47 43
54 73 122 131 132 130 128 128 127 116 99 85 83 89 88 77 53 44 51 55 60 60 54 71 67 74 73 77 81 104 94 69 94 90 89 91 75 78 61 67 66 61 53 48 46
64 95 117 129 131 131 133 128 121 110 103 92 89 86 77 70 47 51 69 72 70 66 65 69 74 93 75 67 60 108 112 109 86 88 98 85 58 67 45 70 66 59 53 50 45
86 106 120 128 130 132 131 123 117 114 112 103 94 72 64 56 54 74 84 79 74 73 74 72 68 123 120 90 118 119 107 93 26 137 144 72 50 69 59 66 64 59 57 50 45
109 114 120 124 125 122 120 121 117 117 105 91 87 77 76 52 74 85 85 86 78 82 81 64 87 78 66 119 107 87 67 92 31 317 18 126 89 52 57 67 58 53 49 44 38
119 119 123 123 123 120 121 125 125 116 95 74 78 78 58 59 70 74 93 89 90 84 74 83 58 64 79 88 50 21 105 77 114 15 89 69 124 80 67 66 57 48 42 36 30
127 124 124 127 129 123 117 115 113 109 111 66 60 78 37 32 52 63 71 100 121 57 58 56 58 67 35 41 184 7 84 61 66 50 75 94 122 115 68 67 56 44 37 32 27
133 129 131 132 131 125 120 112 100 76 72 73 69 73 56 64 49 45 72 95 91 60 57 36 63 44 5 337 314 109 89 108 124 132 80 113 123 117 79 61 49 39 31 25 21
141 140 139 139 139 139 127 120 124 122 77 66 68 65 43 49 63 59 78 68 55 68 2 40 54 334 274 356 125 138 131 88 77 108 84 135 119 120 78 58 47 35 27 20 11
147 147 150 150 152 148 53 124 121 109 86 40 40 32 18 36 44 14 42 74 68 57 38 91 322 356 128 28 58 58 119 173 215 97 68 133 144 190 110 71 35 30 24 18 7
150 152 154 155 155 175 138 127 97 60 79 336 358 22 8 63 56 23 38 67 48 114 72 77 356 38 51 59 47 354 61 254 142 155 232 203 276 204 185 25 341 13 11 5 3
160 163 165 162 155 156 156 126 39 120 61 326 356 12 33 71 339 12 35 69 79 42 100 15 15 16 46 328 359 258 343 137 136 161 136 196 274 105 176 316 335 340 355 0 356
161 176 181 191 147 163 166 139 345 46 89 356 0 1 39 30 32 19 48 70 79 82 46 72 10 57 300 298 321 294 96 54 66 130 232 167 196 174 181 197 290 329 346 350 346
149 168 188 205 198 180 182 312 41 83 318 338 0 25 91 9 21 29 39 31 42 48 18 352 10 334 17 5 360 18 45 351 359 352 264 61 212 39 171 226 275 318 343 340 335
142 156 162 177 165 168 165 54 76 189 192 153 68 59 75 7 25 15 65 35 26 33 76 45 323 10 342 78 264 16 66 111 301 291 305 330 247 104 203 248 319 332 329 333 345
129 139 152 155 157 161 151 59 175 202 166 141 90 78 16 358 104 76 51 40 333 6 79 54 267 342 50 27 52 21 49 197 234 85 271 266 223 31 220 326 341 346 339 339 349
132 124 125 139 151 153 78 141 141 185 150 34 105 34 124 338 50 57 33 301 322 28 220 205 4 15 296 297 45 95 142 10 20 342 306 272 276 136 257 322 324 338 335 340 349
142 108 136 141 143 102 107 139 139 102 108 56 135 108 105 122 79 71 138 245 12 339 44 97 94 264 349 24 257 4 61 59 118 134 256 305 286 153 170 325 316 327 344 343 348
151 83 152 150 66 57 93 132 128 125 81 79 92 98 107 108 85 116 173 96 5 358 74 324 137 269 268 4 276 98 127 116 124 241 177 21 284 156 81 330 324 333 351 347 349
131 103 156 180 128 89 133 73 81 103 42 74 88 71 74 101 97 139 148 150 38 91 147 167 29 336 311 16 1 68 121 95 87 85 213 166 274 200 322 335 352 344 345 347 346
155 87 114 155 113 129 137 124 103 64 85 83 114 101 107 92 19 163 151 181 76 104 77 127 131 191 216 237 137 262 187 166 150 166 185 233 297 289 330 333 333 344 348 350 343
157 119 144 169 128 116 102 126 127 122 79 91 67 84 147 125 102 159 141 169 117 99 60 91 232 228 273 206 204 242 226 190 201 184 201 173 270 289 296 320 333 343 350 347 343
154 144 111 82 130 109 66 153 137 132 68 107 131 143 60 160 187 202 150 199 171 89 86 9 255 36 276 200 301 265 244 228 212 217 263 282 294 207 324 338 337 340 349 345 344
171 155 140 86 123 101 165 162 153 130 66 85 145 114 86 108 109 98 109 111 127 142 131 78 119 54 273 332 311 283 218 190 177 202 182 236 236 303 319 332 333 342 347 347 344
Wind_Speed_850mb
10 12 13 14 17 19 20 21 23 28 33 37 34 38 39 36 26 23 28 21 22 22 21 20 20 21 27 26 21 11 9 6 5 6 10 17 24 50 42 66 74 42 42 35 50
8 8 11 12 18 22 22 23 29 35 37 38 36 34 30 30 38 45 33 23 18 18 17 19 25 26 19 15 15 16 7 9 11 16 25 43 31 20 26 44 48 51 50 52 55
8 6 9 11 20 23 24 27 35 35 31 26 17 9 9 8 24 34 26 22 17 18 19 20 19 23 21 21 15 12 8 12 35 58 48 56 76 9 12 33 33 38 45 56 60
7 6 6 14 24 27 28 31 35 31 26 21 20 20 20 6 9 22 20 19 19 19 19 25 21 12 12 11 14 14 38 21 13 28 35 29 38 70 61 36 36 41 48 58 68
7 5 12 23 29 30 30 34 32 29 23 22 26 27 32 42 24 20 16 15 17 17 20 18 24 14 9 10 25 16 23 47 61 74 72 72 63 48 51 42 44 50 58 64 64
9 12 19 29 33 33 34 36 30 25 26 27 31 31 29 42 21 17 17 17 18 20 22 24 17 23 22 11 12 23 58 39 36 50 29 51 45 18 31 38 50 55 59 61 63
15 22 31 36 36 38 37 35 25 28 44 43 34 33 51 22 18 16 15 18 22 23 25 22 22 9 18 24 44 45 32 26 22 13 32 21 43 24 24 41 56 56 57 56 57
24 32 35 37 41 42 36 39 47 36 27 26 28 31 21 23 20 17 18 19 20 20 27 32 15 23 14 37 12 4 7 8 15 12 19 13 11 19 26 44 49 53 54 54 55
31 34 37 45 50 48 41 32 27 25 20 15 11 15 11 15 24 22 15 14 19 24 26 17 29 21 11 8 6 12 5 5 6 50 5 19 20 13 26 37 45 50 52 51 51
35 38 43 48 47 39 33 28 23 17 14 10 14 10 22 20 21 15 18 13 12 8 11 15 20 9 9 10 4 1 4 7 9 12 40 41 29 14 19 35 38 47 52 52 52
35 39 44 44 40 41 40 31 22 25 48 29 27 23 18 17 25 17 10 15 16 20 10 23 20 9 6 7 3 6 7 10 7 13 14 27 26 15 14 27 34 41 51 54 56
36 39 38 38 41 37 16 7 12 25 27 36 31 20 31 19 17 32 22 15 18 9 6 12 12 7 6 9 8 9 9 7 10 15 14 19 17 8 9 16 24 30 40 49 57
35 36 36 38 35 25 10 32 28 13 12 16 24 26 17 20 24 34 20 14 18 16 15 13 5 7 6 12 7 3 9 7 2 16 18 22 6 7 2 5 17 27 37 46 55
32 35 36 30 18 14 27 21 6 3 10 21 17 18 24 5 14 33 20 9 13 7 6 10 11 6 10 10 4 3 6 4 25 12 5 12 4 8 7 3 9 25 35 41 55
30 32 31 22 6 23 27 10 5 2 9 14 11 9 32 17 5 35 25 30 10 5 6 1 9 11 11 5 2 6 3 6 8 9 6 12 5 4 4 5 14 19 27 38 50
25 29 29 24 4 24 20 1 6 11 4 6 10 14 10 25 12 19 16 19 10 10 14 3 3 6 4 5 4 12 6 8 6 5 3 7 9 10 7 5 8 19 29 39 49
20 22 25 22 13 22 16 3 10 11 5 7 7 7 9 14 13 18 11 17 9 5 12 12 6 11 11 8 10 16 9 5 6 4 5 4 3 4 11 10 9 17 35 40 39
19 19 21 17 17 22 15 9 12 4 2 2 3 6 10 10 8 13 6 9 12 9 7 7 5 11 20 5 3 8 5 6 8 7 7 4 8 2 11 8 15 27 33 35 40
20 19 18 17 23 23 7 10 9 7 5 10 5 9 7 5 6 9 9 3 4 10 5 4 3 3 7 8 2 2 9 2 2 3 1 4 1 1 3 11 21 32 36 31 42
21 21 21 21 23 17 9 8 4 1 0 1 6 1 3 9 5 8 5 3 7 8 2 5 4 2 6 3 17 9 6 3 7 10 11 5 7 3 1 10 18 32 37 32 45
23 11 15 21 19 4 8 6 5 2 2 5 5 7 5 4 5 3 1 2 2 8 10 3 3 4 2 8 2 7 4 10 6 2 4 9 5 9 5 6 15 30 40 36 50
12 8 19 24 7 9 6 8 9 5 6 5 9 7 5 4 5 4 5 2 4 1 3 1 6 6 3 1 3 4 5 6 6 4 1 1 8 15 5 17 20 34 40 45 46
12 11 13 12 7 4 4 7 7 4 6 4 5 5 4 6 3 3 5 3 5 4 6 5 2 7 4 2 3 4 3 7 9 4 10 7 4 10 11 22 44 44 43 47 36
9 5 6 4 9 16 11 6 7 7 6 10 8 5 6 5 8 9 6 3 2 7 7 3 4 8 9 3 2 7 6 7 8 6 6 11 8 6 16 19 35 36 35 30 46
7 5 9 4 1 15 10 7 9 6 5 5 7 4 8 6 3 4 4 2 3 4 4 4 5 2 8 4 4 6 10 12 14 6 11 5 7 14 10 22 37 35 35 35 47
11 12 12 11 25 15 4 5 9 6 3 1 10 3 3 9 6 12 11 7 5 4 4 4 1 3 7 3 5 9 13 11 8 6 13 7 12 10 30 40 36 43 25 32 42
12 16 9 3 5 7 6 10 10 21 7 7 18 9 6 4 10 16 9 15 12 10 5 4 5 5 9 6 9 10 11 14 6 7 8 8 8 7 22 31 31 27 27 45 47
Wind_Direction_850mb
52 74 80 89 102 110 105 99 105 114 116 111 102 95 89 80 78 76 58 55 68 65 61 62 58 71 74 63 52 71 64 65 50 65 82 31 86 63 69 69 64 69 65 46 44
43 71 90 107 114 109 110 107 114 118 117 115 105 98 89 83 71 60 51 60 73 55 61 66 68 75 67 43 34 60 72 53 13 93 90 66 78 92 72 56 52 56 57 50 46
38 75 109 112 118 120 119 116 118 117 116 118 109 83 64 73 57 29 46 64 62 56 55 54 60 65 60 54 31 46 63 90 81 112 101 89 63 89 90 51 45 41 37 41 44
44 85 98 130 133 127 124 123 123 117 110 96 78 85 69 85 74 23 46 56 55 55 54 53 71 71 66 62 39 89 39 99 144 101 95 84 90 70 65 70 60 55 54 47 43
54 73 122 131 132 130 128 128 127 116 99 85 83 89 88 77 53 44 51 55 60 60 54 71 67 74 73 77 81 104 94 69 94 90 89 91 75 78 61 67 66 61 53 48 46
64 95 117 129 131 131 133 128 121 110 103 92 89 86 77 70 47 51 69 72 70 66 65 69 74 93 75 67 60 108 112 109 86 88 98 85 58 67 45 70 66 59 53 50 45
86 106 120 128 130 132 131 123 117 114 112 103 94 72 64 56 54 74 84 79 74 73 74 72 68 123 120 90 118 119 107 93 26 137 144 72 50 69 59 66 64 59 57 50 45
109 114 120 124 125 122 120 121 117 117 105 91 87 77 76 52 74 85 85 86 78 82 81 64 87 78 66 119 107 87 67 92 31 317 18 126 89 52 57 67 58 53 49 44 38
119 119 123 123 123 120 121 125 125 116 95 74 78 78 58 59 70 74 93 89 90 84 74 83 58 64 79 88 50 21 105 77 114 15 89 69 124 80 67 66 57 48 42 36 30
127 124 124 127 129 123 117 115 113 109 111 66 60 78 37 32 52 63 71 100 121 57 58 56 58 67 35 41 184 7 84 61 66 50 75 94 122 115 68 67 56 44 37 32 27
133 129 131 132 131 125 120 112 100 76 72 73 69 73 56 64 49 45 72 95 91 60 57 36 63 44 5 337 314 109 89 108 124 132 80 113 123 117 79 61 49 39 31 25 21
141 140 139 139 139 139 127 120 124 122 77 66 68 65 43 49 63 59 78 68 55 68 2 40 54 334 274 356 125 138 131 88 77 108 84 135 119 120 78 58 47 35 27 20 11
147 147 150 150 152 148 53 124 121 109 86 40 40 32 18 36 44 14 42 74 68 57 38 91 322 356 128 28 58 58 119 173 215 97 68 133 144 190 110 71 35 30 24 18 7
150 152 154 155 155 175 138 127 97 60 79 336 358 22 8 63 56 23 38 67 48 114 72 77 356 38 51 59 47 354 61 254 142 155 232 203 276 204 185 25 341 13 11 5 3
160 163 165 162 155 156 156 126 39 120 61 326 356 12 33 71 339 12 35 69 79 42 100 15 15 16 46 328 359 258 343 137 136 161 136 196 274 105 176 316 335 340 355 0 356
161 176 181 191 147 163 166 139 345 46 89 356 0 1 39 30 32 19 48 70 79 82 46 72 10 57 300 298 321 294 96 54 66 130 232 167 196 174 181 197 290 329 346 350 346
149 168 188 205 198 180 182 312 41 83 318 338 0 25 91 9 21 29 39 31 42 48 18 352 10 334 17 5 360 18 45 351 359 352 264 61 212 39 171 226 275 318 343 340 335
142 156 162 177 165 168 165 54 76 189 192 153 68 59 75 7 25 15 65 35 26 33 76 45 323 10 342 78 264 16 66 111 301 291 305 330 247 104 203 248 319 332 329 333 345
129 139 152 155 157 161 151 59 175 202 166 141 90 78 16 358 104 76 51 40 333 6 79 54 267 342 50 27 52 21 49 197 234 85 271 266 223 31 220 326 341 346 339 339 349
132 124 125 139 151 153 78 141 141 185 150 34 105 34 124 338 50 57 33 301 322 28 220 205 4 15 296 297 45 95 142 10 20 342 306 272 276 136 257 322 324 338 335 340 349
142 108 136 141 143 102 107 139 139 102 108 56 135 108 105 122 79 71 138 245 12 339 44 97 94 264 349 24 257 4 61 59 118 134 256 305 286 153 170 325 316 327 344 343 348
151 83 152 150 66 57 93 132 128 125 81 79 92 98 107 108 85 116 173 96 5 358 74 324 137 269 268 4 276 98 127 116 124 241 177 21 284 156 81 330 324 333 351 347 349
131 103 156 180 128 89 133 73 81 103 42 74 88 71 74 101 97 139 148 150 38 91 147 167 29 336 311 16 1 68 121 95 87 85 213 166 274 200 322 335 352 344 345 347 346
155 87 114 155 113 129 137 124 103 64 85 83 114 101 107 92 19 163 151 181 76 104 77 127 131 191 216 237 137 262 187 166 150 166 185 233 297 289 330 333 333 344 348 350 343
157 119 144 169 128 116 102 126 127 122 79 91 67 84 147 125 102 159 141 169 117 99 60 91 232 228 273 206 204 242 226 190 201 184 201 173 270 289 296 320 333 343 350 347 343
154 144 111 82 130 109 66 153 137 132 68 107 131 143 60 160 187 202 150 199 171 89 86 9 255 36 276 200 301 265 244 228 212 217 263 282 294 207 324 338 337 340 349 345 344
171 155 140 86 123 101 165 162 153 130 66 85 145 114 86 108 109 98 109 111 127 142 131 78 119 54 273 332 311 283 218 190 177 202 182 236 236 303 319 332 333 342 347 347 344